星链-36712(STARLINK-36712)

导读 | 豆包AI

STARLINK-36712是美国SpaceX星链星座的卫星,于2026年2月7日发射升空,归属星链互联网星座组网部署。星链项目旨在构建全球卫星互联网系统,为全球偏远地区、高需求区域提供高速宽带网络服务,该卫星的发射延续了星链星座持续扩容的节奏,进一步推进全球卫星互联网络的覆盖进程。

基本信息
目录编号:
67700
目录名称:
STARLINK-36712
国际标识:
2026-025H
轨道中心:
EARTH
卫星名称:
星链-36712
卫星全名:
星链-36712(STARLINK-36712)
卫星状态:
在轨 (已飞行107 天)
发射日期:
2026-02-07 UTC
国别 :
美国 (US)
星等 :
--
轨道信息
数据来源 国际轨道数据
星历时间: 2026-05-25T09:11:59+0800
11小时前
查看轨道信息
半长轴: 6843.644km
偏心率: 0.0000462
轨道倾角: 97.285°
近地点辐角 77.751°
升交点赤经 256.644°
平近点角 282.378°
近地点: 465.19km
远地点: 465.824km
周期: 93.905分钟
每日圈数: 15.334573
详细信息
固有亮度:
5
最大亮度:
2.5
卫星平台:
Starlink V1.0
覆盖范围:
全球
运营商:
太空探索技术公司
运营商所在国:
美国
制造商(研发单位):
太空探索技术公司
制造商所在国:
美国
使用方式:
暂无
卫星简介
Starlink 计划是 SpaceX 推出的全球卫星互联网项目,通过发射低轨道卫星,为全球尤其是偏远地区提供高速、低延迟的互联网服务。自 2019 年起,Starlink 已部署数千颗卫星,旨在缩小全球数字鸿沟,推动互联网普及。该项目还为军事、航空等行业提供通信支持,带来广泛经济效益。
2D轨道图
3D轨道图
轨道高度分析图
轨道倾角分析图
轨道综合分析图
查看轨道综合分析图